International Skating Union - Official Site

ISU World Cup Speed Skating Calgary
December 1-3, 2017

Draw | Lap Times | Index | World Cup

Referee: Bert  TIMMERMAN  (NED)
Starter: Yong-Seok  OH  (KOR)
StartTime: EndTime: Air Temp: Ice Temp: Humidity:
13:39 14:39 16℃ -8.5℃ 30%
Result 5000m Men Division A
Rankings as of Dec 1 2017 2:44PM
Rank: No.: Name: Nation: Time: Behind: Points:
1 105 Sven  Kramer NED NED 6:07.04200m - 18.61 - (18.6)
600m - 47.80 - (29.1)
1000m - 1:17.24 - (29.4)
1400m - 1:46.46 - (29.2)
1800m - 2:15.21 - (28.7)
2200m - 2:44.36 - (29.1)
2600m - 3:13.04 - (28.6)
3000m - 3:41.74 - (28.7)
3400m - 4:10.12 - (28.3)
3800m - 4:38.87 - (28.7)
4200m - 5:07.86 - (28.9)
4600m - 5:37.10 - (29.2)
5000m - 6:07.04 - (29.9)
100
2 12 Ted-Jan  Bloemen CAN CAN 6:08.54200m - 19.15 - (19.1)
600m - 48.39 - (29.2)
1000m - 1:17.34 - (28.9)
1400m - 1:46.26 - (28.9)
1800m - 2:15.31 - (29.0)
2200m - 2:43.76 - (28.4)
2600m - 3:12.51 - (28.7)
3000m - 3:41.15 - (28.6)
3400m - 4:10.09 - (28.9)
3800m - 4:39.44 - (29.3)
4200m - 5:08.73 - (29.2)
4600m - 5:38.23 - (29.5)
5000m - 6:08.54 - (30.3)
1.50 80
3 52 Patrick  Beckert GER GER 6:10.80200m - 19.53 - (19.5)
600m - 47.96 - (28.4)
1000m - 1:17.00 - (29.0)
1400m - 1:46.23 - (29.2)
1800m - 2:15.55 - (29.3)
2200m - 2:45.00 - (29.4)
2600m - 3:14.63 - (29.6)
3000m - 3:44.26 - (29.6)
3400m - 4:13.77 - (29.5)
3800m - 4:43.47 - (29.7)
4200m - 5:12.74 - (29.2)
4600m - 5:41.83 - (29.0)
5000m - 6:10.80 - (28.9)
3.76 70
4 64 Andrea  Giovannini ITA ITA 6:11.07200m - 18.71 - (18.7)
600m - 47.74 - (29.0)
1000m - 1:16.60 - (28.8)
1400m - 1:45.58 - (28.9)
1800m - 2:14.54 - (28.9)
2200m - 2:43.49 - (28.9)
2600m - 3:12.58 - (29.0)
3000m - 3:41.77 - (29.1)
3400m - 4:11.02 - (29.2)
3800m - 4:40.48 - (29.4)
4200m - 5:10.19 - (29.7)
4600m - 5:40.36 - (30.1)
5000m - 6:11.07 - (30.7)
4.03 60
5 54 Moritz  Geisreiter GER GER 6:11.47200m - 19.33 - (19.3)
600m - 48.23 - (28.9)
1000m - 1:17.16 - (28.9)
1400m - 1:46.47 - (29.3)
1800m - 2:15.72 - (29.2)
2200m - 2:45.25 - (29.5)
2600m - 3:14.62 - (29.3)
3000m - 3:43.85 - (29.2)
3400m - 4:13.47 - (29.6)
3800m - 4:43.11 - (29.6)
4200m - 5:12.55 - (29.4)
4600m - 5:41.90 - (29.3)
5000m - 6:11.47 - (29.5)
4.43 50
6 67 Nicola  Tumolero ITA ITA 6:11.91200m - 18.51 - (18.5)
600m - 47.94 - (29.4)
1000m - 1:17.37 - (29.4)
1400m - 1:46.58 - (29.2)
1800m - 2:15.75 - (29.1)
2200m - 2:45.00 - (29.2)
2600m - 3:14.59 - (29.5)
3000m - 3:44.11 - (29.5)
3400m - 4:13.68 - (29.5)
3800m - 4:43.18 - (29.5)
4200m - 5:12.68 - (29.5)
4600m - 5:42.31 - (29.6)
5000m - 6:11.91 - (29.6)
4.87 45
7 101 Jan  Blokhuijsen NED NED 6:12.74200m - 18.48 - (18.4)
600m - 46.99 - (28.5)
1000m - 1:16.19 - (29.2)
1400m - 1:45.31 - (29.1)
1800m - 2:14.79 - (29.4)
2200m - 2:44.04 - (29.2)
2600m - 3:13.23 - (29.1)
3000m - 3:42.54 - (29.3)
3400m - 4:11.90 - (29.3)
3800m - 4:41.60 - (29.7)
4200m - 5:11.53 - (29.9)
4600m - 5:41.74 - (30.2)
5000m - 6:12.74 - (31.0)
5.70 40
8 147 Alexander  Rumyantsev RUS RUS 6:14.31200m - 19.50 - (19.5)
600m - 48.46 - (28.9)
1000m - 1:17.66 - (29.2)
1400m - 1:47.35 - (29.6)
1800m - 2:17.06 - (29.7)
2200m - 2:47.06 - (30.0)
2600m - 3:16.53 - (29.4)
3000m - 3:45.89 - (29.3)
3400m - 4:15.20 - (29.3)
3800m - 4:44.46 - (29.2)
4200m - 5:13.84 - (29.3)
4600m - 5:43.71 - (29.8)
5000m - 6:14.31 - (30.6)
7.27 35
9 124 Sverre Lunde  Pedersen NOR NOR 6:14.84200m - 18.99 - (18.9)
600m - 47.50 - (28.5)
1000m - 1:15.96 - (28.4)
1400m - 1:44.85 - (28.8)
1800m - 2:14.00 - (29.1)
2200m - 2:43.18 - (29.1)
2600m - 3:12.37 - (29.1)
3000m - 3:41.85 - (29.4)
3400m - 4:11.36 - (29.5)
3800m - 4:40.81 - (29.4)
4200m - 5:10.73 - (29.9)
4600m - 5:41.63 - (30.9)
5000m - 6:14.84 - (33.2)
7.80 30
10 50 Alexis  Contin FRA FRA 6:15.17200m - 18.80 - (18.8)
600m - 47.69 - (28.8)
1000m - 1:17.13 - (29.4)
1400m - 1:46.94 - (29.8)
1800m - 2:16.03 - (29.0)
2200m - 2:45.32 - (29.2)
2600m - 3:14.25 - (28.9)
3000m - 3:43.76 - (29.5)
3400m - 4:13.60 - (29.8)
3800m - 4:43.91 - (30.3)
4200m - 5:13.81 - (29.9)
4600m - 5:43.95 - (30.1)
5000m - 6:15.17 - (31.2)
8.13 25
11 129 Peter  Michael NZL NZL 6:15.92200m - 18.77 - (18.7)
600m - 47.60 - (28.8)
1000m - 1:16.67 - (29.0)
1400m - 1:46.54 - (29.8)
1800m - 2:16.01 - (29.4)
2200m - 2:45.56 - (29.5)
2600m - 3:15.22 - (29.6)
3000m - 3:45.07 - (29.8)
3400m - 4:14.99 - (29.9)
3800m - 4:45.08 - (30.0)
4200m - 5:15.21 - (30.1)
4600m - 5:45.64 - (30.4)
5000m - 6:15.92 - (30.2)
8.88 21
12 104 Erik Jan  Kooiman NED NED 6:16.83200m - 19.57 - (19.5)
600m - 48.43 - (28.8)
1000m - 1:17.61 - (29.1)
1400m - 1:47.38 - (29.7)
1800m - 2:16.99 - (29.6)
2200m - 2:46.86 - (29.8)
2600m - 3:16.59 - (29.7)
3000m - 3:46.30 - (29.7)
3400m - 4:16.00 - (29.7)
3800m - 4:45.86 - (29.8)
4200m - 5:15.98 - (30.1)
4600m - 5:46.35 - (30.3)
5000m - 6:16.83 - (30.4)
9.79 18
13 118 Håvard  Bøkko NOR NOR 6:16.88200m - 18.91 - (18.9)
600m - 48.15 - (29.2)
1000m - 1:17.46 - (29.3)
1400m - 1:46.69 - (29.2)
1800m - 2:16.29 - (29.6)
2200m - 2:45.89 - (29.6)
2600m - 3:15.33 - (29.4)
3000m - 3:44.90 - (29.5)
3400m - 4:14.75 - (29.8)
3800m - 4:44.57 - (29.8)
4200m - 5:14.81 - (30.2)
4600m - 5:45.72 - (30.9)
5000m - 6:16.88 - (31.1)
9.84 16
14 63 Davide  Ghiotto ITA ITA 6:17.16200m - 19.05 - (19.0)
600m - 47.65 - (28.6)
1000m - 1:17.13 - (29.4)
1400m - 1:46.59 - (29.4)
1800m - 2:16.09 - (29.5)
2200m - 2:45.17 - (29.0)
2600m - 3:14.37 - (29.2)
3000m - 3:43.98 - (29.6)
3400m - 4:14.06 - (30.0)
3800m - 4:44.41 - (30.3)
4200m - 5:15.21 - (30.8)
4600m - 5:46.21 - (31.0)
5000m - 6:17.16 - (30.9)
10.12 14
15 11 Jordan  Belchos CAN CAN 6:18.65200m - 19.20 - (19.2)
600m - 47.99 - (28.7)
1000m - 1:17.12 - (29.1)
1400m - 1:46.49 - (29.3)
1800m - 2:16.11 - (29.6)
2200m - 2:45.65 - (29.5)
2600m - 3:15.76 - (30.1)
3000m - 3:45.83 - (30.0)
3400m - 4:16.14 - (30.3)
3800m - 4:46.66 - (30.5)
4200m - 5:17.31 - (30.6)
4600m - 5:47.79 - (30.4)
5000m - 6:18.65 - (30.8)
11.61 12
16 100 Jorrit  Bergsma NED NED 6:22.38200m - 18.83 - (18.8)
600m - 47.76 - (28.9)
1000m - 1:16.85 - (29.0)
1400m - 1:46.15 - (29.3)
1800m - 2:15.56 - (29.4)
2200m - 2:45.22 - (29.6)
2600m - 3:14.86 - (29.6)
3000m - 3:44.88 - (30.0)
3400m - 4:15.48 - (30.6)
3800m - 4:46.65 - (31.1)
4200m - 5:18.26 - (31.6)
4600m - 5:50.22 - (31.9)
5000m - 6:22.38 - (32.1)
15.34 10